Regional Weather Roundup
Issued by NWS

Home | Current Version | Previous Version | Graphics & Text | Print | Product List | Glossary On
Versions: 1 2 3 4 5 6 7 8 9 10 11 12 13 14 15 16 17 18 19 20 21 22 23 24 25 26 27
000
ASUS45 KBOU 232207
RWRCO

WEATHER ROUNDUP FOR COLORADO
NATIONAL WEATHER SERVICE DENVER/BOULDER CO
400 PM MDT FRI JUN 23 2017

NOTE: "FAIR" INDICATES FEW OR NO CLOUDS BELOW 12000 FEET WITH NO
SIGNIFICANT WEATHER AND/OR OBSTRUCTIONS TO VISIBILITY.

COZ001>005-013-030-031-232300-
...NORTHWEST COLORADO...

CITY           SKY/WX    TMP DP  RH WIND       PRES   REMARKS
CRAIG          FAIR      82  21  10 VRB7G20   30.20S
HAYDEN         FAIR      75  25  15 NW6       30.22S
MEEKER         FAIR      81  22  11 NW8       30.20S
RABBIT EARS PA FAIR      55  32  41 W8G20     30.46S
STEAMBOAT SPGS FAIR      73  28  18 W16G22    30.23S
WALDEN         FAIR      70  27  19 W18       30.31R
$$

COZ006>008-011-232300-
...WEST CENTRAL VALLEYS...

CITY           SKY/WX    TMP DP  RH WIND       PRES   REMARKS
GRAND JUNCTION FAIR      91  24   9 W10G20    30.03F
MONTROSE       FAIR      88  28  11 N12       30.10F
EAGLE          SUNNY     84  27  12 W15G30    30.15R
RIFLE          FAIR      89  22   8 N10G22    30.08F
DELTA          FAIR      95  19   6 NW13G23   30.04F
NUCLA          FAIR      91  19   7 N9        30.14F
$$

COZ017>023-064>068-232300-
...SOUTHWEST COLORADO...

CITY           SKY/WX    TMP DP  RH WIND       PRES   REMARKS
DURANGO        FAIR      89  17   7 NW18G29   30.13S
CORTEZ         FAIR      95  20   6 W18G28    30.08F
PAGOSA SPRINGS FAIR      89  -1   3 SW18G28   30.18S
TELLURIDE      FAIR      76  17  10 W8G17     30.38F
WOLF CREEK PAS FAIR      64  12  13 SW12G18   30.59S
$$

COZ009-010-012-014-032>034-037-058>063-232300-
...CENTRAL COLORADO...

CITY           SKY/WX    TMP DP  RH WIND       PRES   REMARKS
ASPEN          FAIR      80  19  10 N17G25    30.22S
BUENA VISTA    FAIR      72  41  32 SE14      30.22F
COPPER MTN     FAIR      63   9  12 NW29G38   30.53S
BERTHOUD PASS  FAIR      50  37  62 NW25G41   30.56R
COTTONWOOD PAS FAIR      73  34  23 NE3       30.36F
GUNNISON       FAIR      78  25  14 SW15G30   30.21S
KREMMLING      NOT AVBL
LEADVILLE      FAIR      70  -1   6 N17G28    30.37S
MONARCH PASS   FAIR      63  23  22 W31G43    30.64S
SALIDA         FAIR      66  47  51 SE23G37   30.28F
SUNLIGHT       FAIR      63  23  22 W14G21    30.51S
WILKERSON PASS FAIR      52  41  66 SE8       30.49F
$$

COZ069>075-232300-
...SAN LUIS VALLEY/SANGRE DE CRISTO MOUNTAINS...

CITY           SKY/WX    TMP DP  RH WIND       PRES   REMARKS
ALAMOSA        FAIR      84  38  19 SE8       30.13F
DEL NORTE      FAIR      87  10   5 W8G30     30.18F
LA VETA PASS   LGT RAIN  46  43  87 N7        30.51S VSB<1/4
SAGUACHE       FAIR      86  12   6 NW30G36   30.19S
$$

COZ035-036-038>040-232300-
...NORTHERN COLORADO FRONT RANGE...

CITY           SKY/WX    TMP DP  RH WIND       PRES   REMARKS
DENVER INTL AP CLOUDY    59  44  57 SE12      30.26F
DMNS CITY PARK   N/A     55  44  66 SE10      30.27F
AURORA         CLOUDY    54  45  71 E6        30.28F
FRONT RANGE AP CLOUDY    59  45  58 SE8       30.28S
ERIE MUNI ARPT CLOUDY    61  46  56 SW8       30.26F
BOULDER MUN AP CLOUDY    57  45  62 CALM      30.26F
CENTENNIAL     CLOUDY    52  46  80 VRB5      30.28S
BROOMFIELD     CLOUDY    55  45  67 CALM      30.29S
FORT COLLINS   FAIR      63  46  54 SW8       30.26F
LONGMONT       CLOUDY    63  45  52 CALM      30.27F
$$

COZ041-046-047-076>085-087-088-232300-
...PIKES PEAK/PALMER DIVIDE AND SOUTHERN FOOTHILLS...

CITY           SKY/WX    TMP DP  RH WIND       PRES   REMARKS
COLO. SPRINGS  CLOUDY    56  46  69 S12       30.28S
A. F. ACADEMY  CLOUDY    54  45  71 S13       30.28S
SCHRIEVER AFB  CLOUDY    55  45  68 S10       30.28F
CHEYENNE MTN   CLOUDY    49  46  86 SE13      30.24R
ELLICOTT       CLOUDY   N/A N/A N/A SW8       30.26F
FALCON           N/A     54  43  67 S13       30.31S
FORT CARSON    CLOUDY    57  47  68 S8        30.25F
LIMON          CLOUDY    60  43  53 VRB5      30.26S
MONUMENT HILL  CLOUDY    52  45  76 S9        30.32S
CANON CITY     CLOUDY    57  52  82 E6        30.24F
WALSENBURG     CLOUDY    57  50  77 SE8       30.26F
TRINIDAD       CLOUDY    62  45  53 VRB5      30.24F
$$

COZ042>045-048>051-090-091-232300-
...NORTHEAST COLORADO...

CITY           SKY/WX    TMP DP  RH WIND       PRES   REMARKS
GREELEY ARPT   FAIR      67  45  45 S8        30.24F
AKRON          PTSUNNY   67  42  40 SW8       30.22F
BURLINGTON     CLOUDY    65  46  50 NW6       30.21F
WRAY           FAIR      73  39  29 NW6       30.18F
YUMA           MOCLDY    66  39  37 N3        30.20F
STERLING       CLOUDY    70  45  40 CALM      30.19S
HOLYOKE        NOT AVBL
FORT MORGAN    PTSUNNY   66  42  42 S7        30.24S
$$

COZ086-089-092>099-232300-
...SOUTHEAST COLORADO...

CITY           SKY/WX    TMP DP  RH WIND       PRES   REMARKS
PUEBLO         CLOUDY    62  49  62 E3        30.21F
LA JUNTA       PTSUNNY   68  44  42 S5        30.20F
LAMAR          FAIR      73  43  33 VRB5      30.17F
SPRINGFIELD      N/A     68  45  43 E6        30.19F
$$




USA.gov is the U.S. government's official web portal to all federal, state and local government web resources and services.